Left ArrowRight Arrow

35.59393, -105.2239

Hourly Observations for June 20, 2024

Temp ( °F °C ) Dew Point ( °F °C ) Humidity (%) Winds ( mph kmh ) Pressure ( in mb ) Visibility ( mi km ) Precip ( " mm )
12:27 am 00:27 Windy with Storms Likely 59 15 56 13.3 90 90 SE 20 31 29.99 1016 6 10 0.06 1.52
12:53 am 00:53 Cloudy with Thunderstorms 59 15 56 13.3 90 90 SE 10 17 30.08 1019 10 16 0.08 2.03
1:01 am 01:01 Cloudy with Nearby Thunderstorms 59 15 56 13.3 90 90 SE 12 19 30.02 1017 10 16 0.01 0.13
1:10 am 01:10 Cloudy with Nearby Thunderstorms 58 14.4 55 12.8 90 90 ESE 13 20 30.03 1017 10 16 0.01 0.13
1:19 am 01:19 Mostly Cloudy with Nearby Thunderstorms 58 14.4 55 12.8 90 90 ESE 12 19 30.04 1017 10 16 0.01 0.13
1:36 am 01:36 Cloudy with Nearby Thunderstorms 57 13.9 52 11.1 83 83 SE 13 20 30.03 1017 10 16 0.01 0.13
1:53 am 01:53 Cloudy with Nearby Thunderstorms 57 13.9 52 11.1 83 83 SE 15 24 30.06 1018 10 16 0.01 0.13
2:07 am 02:07 Cloudy with Thunderstorms 57 13.9 53 11.7 87 87 SSE 14 22 30.03 1017 10 16 0.00 0.00
2:14 am 02:14 Cloudy with Nearby Thunderstorms 58 14.4 54 12.2 87 87 S 17 28 30.02 1017 10 16 0.00 0.00
2:31 am 02:31 Cloudy with Thunderstorms 57 13.9 54 12.2 89 89 S 15 24 30.04 1017 10 16 0.01 0.13
2:46 am 02:46 Cloudy with Nearby Thunderstorms 57 13.9 53 11.7 87 87 S 17 28 30.04 1017 10 16 0.01 0.13
3:02 am 03:02 Cloudy 57 13.9 53 11.7 87 87 S 14 22 30.04 1017 10 16 0.01 0.13
3:12 am 03:12 Cloudy 57 13.9 53 11.7 87 87 SSE 14 22 30.04 1017 10 16 0.01 0.13
3:53 am 03:53 Cloudy 58 14.4 55 12.8 90 90 S 12 19 30.11 1020 10 16 0.01 0.13
4:01 am 04:01 Cloudy 58 14.4 55 12.8 90 90 S 10 17 30.03 1017 10 16 0.00 0.00
4:17 am 04:17 Cloudy 58 14.4 56 13.3 93 93 SW 5 7 30.04 1017 10 16 0.00 0.00
4:36 am 04:36 Cloudy 57 13.9 55 12.8 93 93 SSW 6 9 30.04 1017 10 16 0.00 0.00
4:53 am 04:53 Cloudy 59 15 56 13.3 90 90 S 10 17 30.11 1020 10 16 0.00 0.00
5:31 am 05:31 Cloudy 59 15 57 13.9 93 93 S 5 7 30.02 1017 10 16 0.00 0.00
5:42 am 05:42 Cloudy with Light Rain 59 15 57 13.9 93 93 SSE 3 6 30.02 1017 10 16 0.01 0.13
5:53 am 05:53 Cloudy with Light Rain 59 15 57 13.9 93 93 Calm 30.11 1020 10 16 0.01 0.13
6:13 am 06:13 Cloudy with Nearby Thunderstorms 59 15 58 14.4 96 96 Calm 30.03 1017 10 16 0.01 0.13
6:28 am 06:28 Cloudy 60 15.6 58 14.4 93 93 Calm 30.02 1017 10 16 0.01 0.13
6:53 am 06:53 Cloudy 60 15.6 58 14.4 93 93 S 6 9 30.15 1021 10 16 0.01 0.13
7:07 am 07:07 Cloudy with Light Rain 60 15.6 58 14.4 93 93 SSW 7 11 30.03 1017 10 16 0.01 0.13
7:16 am 07:16 Cloudy 60 15.6 58 14.4 93 93 SSW 9 15 30.03 1017 10 16 0.01 0.13
7:53 am 07:53 Cloudy with Light Rain 60 15.6 58 14.4 93 93 S 12 19 30.15 1021 6 10 0.01 0.25
8:53 am 08:53 Cloudy 61 16.1 59 15 93 93 S 13 20 30.17 1022 10 16 0.01 0.25
9:21 am 09:21 Cloudy 62 16.7 59 15 90 90 S 16 26 30.04 1017 10 16 0.00 0.00
9:28 am 09:28 Cloudy 62 16.7 59 15 90 90 S 18 30 30.04 1017 10 16 0.00 0.00
9:36 am 09:36 Cloudy 63 17.2 59 15 87 87 S 16 26 30.03 1017 10 16 0.00 0.00
9:53 am 09:53 Mostly Cloudy 63 17.2 58 14.4 84 84 S 15 24 30.17 1022 10 16 0.00 0.00
10:21 am 10:21 Mostly Cloudy 64 17.8 58 14.4 80 80 SSE 16 26 30.01 1016 10 16 0.00 0.00
10:28 am 10:28 Partly Cloudy 66 18.9 59 15 78 78 S 16 26 30.00 1016 10 16 0.00 0.00
10:53 am 10:53 Partly Cloudy 65 18.3 58 14.4 78 78 SSE 14 22 30.16 1021 10 16 0.00 0.00
11:53 am 11:53 Partly Cloudy 68 20 59 15 73 73 S 13 20 30.16 1021 10 16 0.00 0.00
12:53 pm 12:53 Mostly Sunny 70 21.1 57 13.9 63 63 S 13 20 30.13 1020 10 16 0.00 0.00
1:53 pm 13:53 Partly Cloudy 70 21.1 56 13.3 61 61 S 14 22 30.12 1020 10 16 0.00 0.00
2:53 pm 14:53 Partly Cloudy 72 22.2 55 12.8 55 55 S 20 31 30.09 1019 10 16 0.00 0.00
3:53 pm 15:53 Mostly Cloudy 72 22.2 57 13.9 59 59 SSE 17 28 30.06 1018 10 16 0.00 0.00
4:53 pm 16:53 Partly Cloudy 71 21.7 58 14.4 63 63 SSE 23 37 30.04 1017 10 16 0.00 0.00
5:53 pm 17:53 Mostly Sunny 70 21.1 57 13.9 63 63 SSE 22 35 30.02 1017 10 16 0.00 0.00
6:53 pm 18:53 Mostly Cloudy 67 19.4 58 14.4 73 73 S 16 26 30.04 1017 10 16 0.00 0.00
7:53 pm 19:53 Partly Cloudy 65 18.3 57 13.9 76 76 S 16 26 30.06 1018 10 16 0.00 0.00
8:53 pm 20:53 Cloudy 65 18.3 57 13.9 76 76 S 8 13 30.08 1019 10 16 0.00 0.00
9:26 pm 21:26 Mostly Cloudy 63 17.2 56 13.3 78 78 S 18 30 29.97 1015 10 16 0.01 0.13
9:53 pm 21:53 Mostly Cloudy 63 17.2 57 13.9 81 81 S 17 28 30.10 1019 10 16 0.01 0.13
10:53 pm 22:53 Mostly Cloudy 62 16.7 57 13.9 84 84 S 23 37 30.10 1019 10 16 0.00 0.00
11:09 pm 23:09 Cloudy 62 16.7 57 13.9 84 84 S 16 26 30.00 1016 10 16 0.00 0.00
11:26 pm 23:26 Cloudy 62 16.7 57 13.9 84 84 S 15 24 30.00 1016 10 16 0.00 0.00
11:53 pm 23:53 Cloudy 61 16.1 56 13.3 83 83 SSW 17 28 30.10 1019 10 16 0.00 0.00

Powered by Vaisala Xweather